Overview Statistics Trail Chart Weather Telemetry Raw packets
 

This is the latest recevied weather packets stored in our database for station/object SP3ZBZ-13. If no packets are shown the sender has not sent any weather packets the latest 10 day(s).

<< 21 22 23 24 25 26 27 >>
Time Temp. Humidity Pressure Rain* Wind** Luminosity Snow
1788107522 25° C 53% 1006.4 hPa - - 66 W/m² -
1788106621 24.44° C 53% 1006.2 hPa - - 81 W/m² -
1788105720 24.44° C 53% 1006.3 hPa - - 33 W/m² -
1788104819 24.44° C 55% 1006.3 hPa - - 80 W/m² -
1788103918 24.44° C 57% 1006.3 hPa - - 25 W/m² -
1788103017 24.44° C 54% 1006.3 hPa - - 58 W/m² -
1788102115 24.44° C 55% 1006.3 hPa - - 125 W/m² -
1788101215 25° C 55% 1006.3 hPa - - 104 W/m² -
1788100314 25° C 55% 1006.3 hPa - - 253 W/m² -
1788099413 24.44° C 58% 1006.4 hPa - - 90 W/m² -
1788098512 24.44° C 55% 1006.4 hPa - - 69 W/m² -
1788097611 25° C 53% 1006.4 hPa - - 114 W/m² -
1788096710 25.56° C 52% 1006.4 hPa - - 454 W/m² -
1788095809 25° C 51% 1006.4 hPa - - 496 W/m² -
1788094909 25.56° C 51% 1006.4 hPa - - 504 W/m² -
1788094007 25° C 54% 1006.5 hPa - - 553 W/m² -
1788093106 24.44° C 54% 1006.6 hPa - - 388 W/m² -
1788092205 24.44° C 59% 1006.8 hPa - - 382 W/m² -
1788091312 24.44° C 59% 1006.8 hPa - - 307 W/m² -
1788090404 25° C 56% 1006.8 hPa - - 665 W/m² -
1788089503 23.89° C 58% 1006.8 hPa - - 666 W/m² -
1788088604 23.89° C 60% 1006.9 hPa - - 315 W/m² -
1788087701 23.89° C 60% 1006.8 hPa - - 339 W/m² -
1788086801 23.33° C 61% 1006.9 hPa - - 321 W/m² -
1788085899 23.33° C 60% 1007 hPa - - 634 W/m² -

* Rain since midnight (hover to see other rain measurements)
** Current wind speed in m/s (hover to see current wind gust speed)